Lid_Strength_Index
5 5 5 6 6 6 6 7 7 7 6 6 6 6 6 6 5 4 5 5 5 4 4 4 4 2 3 4 5 4 4 4 4 3 2 2 2 2 2 2 2 3 2
5 5 5 6 5 6 6 6 6 7 6 6 6 6 5 5 5 6 6 5 5 5 4 4 4 3 3 2 2 4 5 5 4 5 5 5 4 3 4 3 3 3 3
5 5 6 6 5 7 7 7 6 6 6 6 6 5 5 5 5 5 5 6 6 5 5 5 5 4 4 3 3 3 3 3 5 4 3 5 5 4 5 5 6 6 4
5 6 6 6 6 6 6 6 6 6 6 6 6 6 5 5 5 5 6 5 5 5 5 5 5 5 5 4 3 3 3 4 3 3 3 5 5 5 5 7 8 7 6
5 6 6 6 6 6 6 6 5 6 6 6 5 6 6 6 5 5 5 5 5 4 3 3 3 2 1 2 2 2 3 4 4 3 3 5 5 5 6 7 8 8 9
6 6 6 6 6 6 6 5 5 5 6 5 5 6 6 6 5 5 4 4 4 4 4 3 3 2 2 1 1 1 2 3 4 4 3 5 5 5 6 7 8 10 11
5 6 6 6 6 5 5 5 5 5 5 5 5 5 5 5 5 5 4 4 4 4 4 3 3 2 3 2 2 2 2 2 2 3 4 4 5 5 5 6 7 7 8
5 6 6 6 6 6 6 5 4 5 5 5 5 5 4 3 4 5 4 4 4 3 4 3 4 4 4 3 3 3 3 3 3 3 3 4 4 5 5 6 6 6 6
5 5 5 5 6 6 6 6 6 6 6 6 5 5 4 4 4 4 4 4 4 4 4 4 4 4 4 5 5 5 5 4 2 3 3 4 5 5 5 5 7 7 7
5 5 5 5 5 6 6 6 7 6 6 5 5 5 5 4 5 5 4 4 4 4 4 4 4 4 5 5 5 5 6 5 4 4 4 4 3 4 4 4 5 7 7
4 5 5 6 6 6 6 7 6 6 6 6 6 5 5 4 4 5 5 3 4 4 5 4 4 5 6 6 6 4 5 4 3 4 3 3 3 4 3 4 3 4 5
5 5 6 6 6 7 7 7 6 6 7 7 7 6 6 5 5 5 5 4 4 4 5 4 4 6 6 6 5 5 6 5 3 4 4 4 3 3 3 3 3 3 3
5 5 6 6 7 6 7 7 7 7 7 7 7 7 7 6 5 5 5 5 4 4 4 4 5 6 6 4 4 4 4 3 3 4 4 4 4 3 3 3 3 3 3
5 5 5 6 7 7 6 6 6 7 7 7 7 7 7 6 6 5 5 4 4 3 4 4 4 4 5 4 3 3 3 3 3 4 4 3 3 3 3 3 4 4 4
5 5 6 6 7 7 6 6 6 5 6 7 6 6 6 6 6 6 5 4 4 4 4 4 4 4 4 4 4 3 3 3 3 3 3 3 2 2 1 1 2 2 3
5 5 6 6 6 7 7 6 7 6 7 8 7 6 5 6 7 8 7 7 7 7 4 5 4 4 4 3 3 2 2 2 2 2 2 2 1 2 2 2 2 3 3
4 5 6 6 7 7 6 6 6 6 7 8 8 8 8 6 8 8 7 7 8 7 4 3 3 3 3 2 2 2 2 1 1 2 2 1 1 1 3 2 3 3 4
4 6 5 6 6 6 5 5 5 5 5 5 7 7 8 8 8 8 8 8 5 6 4 3 3 2 2 2 2 2 1 1 2 2 2 2 1 2 2 3 3 3 3
4 4 5 5 5 5 5 5 5 5 5 4 4 7 8 8 9 9 9 4 4 4 3 3 2 2 1 1 1 1 1 1 1 1 1 2 2 2 3 3 3 7 6
3 5 6 4 5 5 5 5 5 5 4 4 4 4 4 8 7 6 8 6 4 3 2 3 2 2 1 1 1 1 1 1 1 1 2 2 2 3 3 3 3 3 4
5 3 7 5 4 5 5 5 5 5 4 4 4 3 8 4 4 4 5 5 5 3 2 2 2 2 2 2 2 1 2 1 1 2 2 3 3 3 3 3 3 4 4
7 6 5 4 4 4 5 4 4 4 4 4 3 3 10 5 3 4 4 4 4 3 2 2 2 2 2 2 2 2 3 3 2 2 3 3 3 4 4 4 4 5 6
9 9 11 11 11 11 11 10 9 9 7 6 6 5 5 4 4 4 4 3 3 3 2 2 2 2 2 2 1 1 2 2 2 3 3 3 4 4 4 5 5 6 6
11 12 12 12 12 13 13 13 13 13 12 12 12 11 11 10 9 8 5 4 3 2 2 3 3 2 2 2 2 2 2 2 2 3 3 4 4 6 5 6 6 7 7
12 12 13 13 14 14 14 14 14 14 13 14 13 13 13 12 12 11 10 8 6 4 3 3 3 3 3 3 4 5 7 10 5 7 5 5 5 6 6 6 7 9 9
13 13 13 13 13 13 13 13 14 13 13 13 13 13 13 13 13 13 12 11 10 7 5 4 4 4 4 6 7 11 12 12 10 10 6 5 6 6 7 8 10 10 11